Cloud_Cover
0 0 0 0 0 0 0 1 83 100 100 100 94 100 37 23 40 36 54 60 39 92 100 100 100 100 100 99 73 100 100 100 92 11 100 100 86 100 100 100 100 100 100 100 99 36 45 3 0
0 0 0 0 0 0 0 0 0 0 9 25 7 5 39 92 61 28 74 29 1 0 100 100 100 100 100 100 100 100 93 100 100 82 99 100 100 100 100 100 88 91 100 100 100 72 5 3 0
6 0 0 0 0 0 0 0 0 0 0 0 1 3 5 5 5 6 22 5 2 4 54 100 100 100 100 100 100 100 100 99 100 100 100 100 100 100 100 100 100 100 100 53 70 64 5 3 0
5 0 0 0 0 0 0 0 0 0 0 0 0 0 0 0 0 0 0 0 0 0 0 0 60 100 100 100 100 90 100 100 100 100 100 100 100 100 100 100 100 100 100 100 59 79 5 48 0
57 17 5 2 0 0 0 0 0 0 0 0 0 64 0 0 0 0 0 0 0 0 0 0 0 20 92 97 100 100 62 100 100 100 100 100 100 100 100 100 100 100 100 100 100 83 5 20 5
100 28 56 8 0 0 0 0 0 0 0 0 0 0 16 0 0 0 0 0 0 0 0 0 0 0 2 65 100 100 100 100 100 100 100 100 100 100 100 100 100 100 100 100 100 100 86 7 21
100 97 70 61 100 12 0 0 0 0 0 0 0 0 12 0 0 0 0 0 0 0 0 0 0 0 0 1 97 100 100 100 100 100 100 100 100 100 100 100 100 100 100 100 100 100 100 69 92
100 100 30 63 100 98 5 3 0 0 0 0 0 0 0 0 0 0 0 0 0 0 0 0 0 0 0 0 4 100 100 100 100 100 100 100 100 100 100 100 100 100 100 100 100 100 100 100 100
100 100 23 81 100 87 66 5 0 0 0 0 0 0 0 0 0 0 0 0 0 0 0 0 0 0 0 0 0 84 100 100 100 100 100 100 100 100 100 100 100 100 100 100 100 100 100 100 100
100 100 100 100 100 100 29 5 3 1 2 0 0 0 0 0 0 0 0 0 0 0 0 0 0 0 0 0 0 0 87 100 100 100 100 100 100 100 100 100 100 100 100 100 100 100 100 100 100
100 100 100 100 100 100 90 8 5 3 0 0 0 0 0 0 0 0 0 0 0 0 0 0 0 0 0 0 0 1 1 90 100 100 100 100 100 100 100 100 100 100 100 100 100 100 100 100 100
100 100 100 77 100 100 100 78 5 3 0 0 0 0 0 0 0 0 0 0 0 0 0 0 0 0 0 0 0 0 0 11 100 100 100 100 100 100 100 100 100 100 100 100 100 100 100 100 100
100 100 100 100 100 80 100 98 6 5 0 0 0 0 0 0 0 0 0 0 0 0 0 0 0 0 0 0 0 0 0 1 75 98 100 100 100 100 100 100 100 100 100 100 100 100 100 100 100
100 100 100 100 100 100 100 64 5 20 5 0 0 0 0 0 0 0 0 0 0 0 0 0 0 0 0 0 0 4 4 2 100 100 100 100 100 100 100 100 100 100 100 100 100 100 100 100 100
100 84 100 100 81 100 24 57 65 27 5 0 0 0 0 0 0 0 0 0 0 0 0 0 0 0 0 0 0 4 5 52 100 100 100 100 100 100 100 100 100 100 100 100 100 100 100 100 100
98 68 38 51 100 100 43 58 57 68 5 0 0 0 0 0 0 0 0 0 0 0 0 0 2 0 0 0 0 4 5 18 100 100 100 100 100 100 100 100 100 100 100 100 100 100 100 100 100
73 48 5 15 100 99 88 99 62 68 5 2 0 0 0 0 0 0 0 0 0 0 0 0 5 3 0 0 0 4 5 40 100 100 100 100 100 100 100 100 100 100 100 100 100 100 100 100 100
68 15 65 19 100 100 100 100 22 62 5 1 0 0 0 0 0 0 0 0 0 0 0 0 46 8 0 0 0 2 46 59 100 100 100 100 100 100 100 100 100 100 100 100 100 100 100 100 100
5 8 60 65 100 84 17 88 49 12 5 0 0 0 0 0 0 0 0 0 0 0 0 0 72 5 5 4 0 4 5 31 100 100 100 100 100 100 100 100 100 100 100 100 100 100 100 100 100
12 9 100 100 100 100 100 100 46 10 5 4 0 0 0 0 0 0 0 0 0 0 2 16 100 84 100 91 3 6 99 72 100 100 100 100 97 100 100 100 100 100 100 100 100 100 100 100 100
89 30 85 100 72 100 100 83 88 23 5 5 0 0 0 0 0 0 0 0 0 0 8 100 99 100 100 100 97 0 72 100 98 100 100 100 100 100 100 100 100 100 100 100 100 100 100 100 100
87 68 80 95 85 100 100 100 72 56 5 5 0 0 0 0 0 0 0 0 0 0 79 100 94 100 74 100 100 25 66 100 78 100 100 100 100 100 100 100 100 100 100 100 100 100 100 100 93
23 45 75 93 91 100 100 100 100 94 20 5 5 0 0 0 0 0 0 0 0 0 81 68 100 97 93 98 89 75 3 100 40 95 100 100 100 100 100 100 100 100 100 100 100 100 100 100 100
5 6 12 100 99 100 96 100 100 98 62 5 5 0 0 0 0 0 0 0 0 0 81 100 22 5 99 42 5 35 8 68 22 93 100 100 100 100 100 100 100 100 100 100 100 100 100 100 100
5 5 47 85 86 100 99 100 100 90 51 5 5 0 0 0 0 0 0 0 0 0 9 100 83 98 70 18 100 8 2 0 85 100 100 100 100 100 100 100 100 100 100 100 100 100 100 100 100
5 5 32 6 98 100 100 100 92 77 36 5 5 3 0 0 0 0 0 0 0 0 2 79 100 94 100 100 100 28 6 80 100 100 100 100 100 100 100 100 100 100 100 100 100 100 100 100 100
6 5 5 38 80 100 100 100 100 100 59 5 4 5 0 0 0 0 0 0 0 0 0 5 98 100 100 100 100 100 91 100 100 100 100 100 100 100 100 100 100 100 100 100 100 100 100 100 100
80 5 5 22 56 100 97 100 91 100 41 11 5 5 4 0 0 0 0 0 0 0 0 4 92 100 100 100 100 92 98 95 36 86 100 100 100 100 100 100 100 100 100 100 100 100 100 100 100
100 42 52 14 15 92 100 58 6 79 32 60 5 5 5 4 0 0 0 0 0 0 0 0 93 98 100 100 100 100 66 97 98 92 77 100 100 100 100 100 100 100 100 100 100 100 100 100 100
100 100 18 37 33 71 84 50 72 13 29 8 5 5 5 5 1 0 0 0 0 0 0 0 0 30 89 100 100 100 100 100 98 97 84 81 92 100 100 100 100 100 100 100 100 100 100 100 100